Temperature
15 15 16 16 17 17 19 22 25 24 25 24 24 24 24 22 22 18 17 17 17 17 17 17 17 17 17 17 17 17 17 17 17 17 17 17 17 17 17 16 16 16 16 16 16 16 16 16 16
15 15 16 17 17 18 20 22 24 24 24 23 23 23 23 21 19 17 17 16 16 16 17 17 17 17 17 17 17 17 17 17 17 17 17 17 16 16 16 16 16 16 16 16 16 16 16 16 16
14 15 16 17 18 19 22 24 23 23 23 22 23 22 22 20 18 17 16 16 16 16 16 17 17 16 16 16 16 16 16 16 16 16 16 16 16 16 16 16 16 16 16 16 16 16 15 15 15
14 15 17 18 19 21 23 23 22 22 22 22 22 21 20 19 18 17 16 16 16 16 16 16 16 16 16 16 16 16 16 16 16 16 16 16 16 16 16 16 16 16 16 16 15 15 15 15 15
14 16 17 17 19 21 23 23 22 22 22 22 22 20 18 17 17 17 16 16 16 15 16 16 16 16 16 16 16 16 16 16 16 16 16 16 16 16 16 16 16 16 15 15 15 15 15 15 15
15 17 17 18 20 22 22 23 22 22 22 22 22 20 17 17 16 16 16 16 15 15 15 16 16 16 16 16 16 16 16 16 16 16 16 16 16 16 15 15 15 15 15 15 15 15 15 15 15
15 16 17 19 20 21 22 22 22 21 21 22 21 20 17 16 16 16 16 16 15 15 15 15 15 15 15 15 15 15 15 15 15 15 15 15 15 15 15 15 15 15 15 15 15 15 15 15 15
15 16 17 18 20 21 21 21 21 20 21 21 21 20 17 16 16 15 15 15 15 15 15 15 15 15 15 15 15 15 15 15 15 15 15 15 15 15 15 15 15 15 15 15 15 15 15 14 15
15 15 16 19 20 20 20 20 20 19 19 19 19 18 17 16 16 15 15 15 14 14 14 14 14 15 15 15 15 15 15 15 15 15 15 15 15 15 15 15 15 15 15 15 14 14 14 14 14
15 14 17 19 19 19 19 19 19 18 18 18 18 17 17 16 15 15 15 14 14 14 14 14 14 14 14 14 14 14 14 14 14 14 14 14 14 14 14 14 14 14 14 14 14 14 14 14 14
15 15 17 18 18 18 18 18 18 18 17 18 18 17 16 15 15 15 15 14 14 14 14 14 14 14 14 14 14 14 14 14 14 14 14 14 14 14 13 14 13 13 13 13 13 13 13 13 13
16 16 17 17 16 16 17 17 17 17 17 18 18 17 16 15 15 15 14 14 14 13 13 13 14 14 14 14 14 14 14 13 14 14 14 13 13 13 13 13 13 13 13 13 13 13 13 13 13
15 16 16 16 15 15 15 16 16 16 17 17 17 16 16 15 15 15 14 14 14 13 13 13 13 14 14 14 14 13 13 13 13 13 13 13 13 13 13 13 13 13 13 12 12 12 12 12 12
15 15 15 15 15 15 15 15 15 16 16 16 16 16 15 15 15 14 14 14 14 13 13 13 13 13 13 13 13 13 13 13 13 13 13 13 13 13 12 12 12 12 12 12 12 12 12 12 12
14 14 14 15 15 15 14 13 14 15 16 16 16 15 15 15 14 14 14 14 13 13 13 13 13 13 13 13 13 13 13 12 12 12 12 12 12 12 12 12 12 12 12 12 12 11 11 11 11
13 13 12 15 15 15 13 13 15 16 16 16 16 15 15 15 14 14 14 14 13 13 13 12 13 13 13 13 12 12 12 12 12 12 12 12 12 12 12 12 12 11 11 11 11 11 11 11 11
12 12 13 14 15 14 13 13 15 16 16 16 16 15 15 15 14 14 14 13 13 13 12 12 12 12 12 12 12 12 12 12 12 12 12 12 12 11 11 11 11 11 11 11 11 10 10 10 10
12 12 14 14 14 14 13 13 14 15 16 16 16 16 15 15 14 14 14 13 13 12 12 12 12 12 12 12 12 11 11 11 11 11 11 11 11 11 11 11 11 11 10 10 10 10 10 10 10
13 13 13 14 14 14 13 13 14 15 15 15 15 16 15 15 14 14 13 13 12 12 11 11 11 11 11 11 11 11 11 11 11 11 11 11 11 11 11 11 10 10 10 10 10 9 9 9 9
12 12 13 13 14 13 13 13 14 14 14 15 15 15 15 15 14 14 13 12 12 11 11 11 11 11 11 11 11 11 11 10 10 10 10 10 10 10 10 10 10 10 10 9 9 9 9 8 8
12 11 12 12 12 12 12 11 13 14 15 15 15 15 15 14 14 13 12 12 11 11 10 10 10 10 10 10 10 10 10 10 10 10 10 10 10 10 10 10 9 9 9 9 9 8 8 8 8
11 12 12 12 11 10 11 9 13 13 13 14 14 14 14 14 14 13 12 11 11 10 10 10 10 10 10 10 10 10 10 10 10 9 9 9 9 9 9 9 9 9 8 8 8 8 7 7 7
11 12 12 11 10 10 10 9 11 13 13 13 13 14 14 13 13 12 11 11 10 10 9 9 9 9 9 9 9 9 9 9 9 9 9 9 9 9 8 8 8 8 8 8 8 7 7 7 6
11 10 10 10 9 8 10 10 11 12 12 13 13 13 13 12 12 11 11 10 9 9 9 9 9 9 9 9 9 9 9 8 8 8 8 8 8 8 8 8 8 8 8 7 7 7 7 7 6
9 8 7 7 7 7 11 11 11 12 13 12 12 12 12 11 11 10 10 9 9 9 9 9 8 8 8 8 8 8 8 8 8 8 8 8 8 8 8 8 7 7 7 7 7 7 6 6 6
8 8 7 7 8 9 11 10 11 12 12 12 12 11 11 10 10 9 9 8 8 8 8 8 8 8 8 8 8 8 8 8 8 8 7 7 8 8 7 7 7 7 7 7 6 6 6 6 5
8 8 9 8 8 8 9 11 10 12 11 11 11 10 10 9 9 8 8 8 8 8 8 7 7 7 7 7 7 7 7 7 7 7 7 7 7 7 7 7 7 7 6 6 6 6 5 5 5
8 8 7 7 7 8 10 10 9 9 9 10 9 9 9 9 8 8 7 7 7 7 7 7 7 7 7 7 7 7 7 7 7 7 7 7 7 7 6 6 6 6 6 6 6 5 5 5 5
7 7 7 6 7 8 9 9 10 9 9 9 8 9 8 8 7 7 7 7 7 7 7 7 7 7 6 6 7 7 6 6 6 6 6 6 6 6 6 6 6 6 6 5 5 5 5 5 5
7 6 6 5 6 7 7 7 9 8 8 8 8 8 8 7 7 7 6 6 6 6 6 6 6 6 6 6 6 6 6 6 6 6 6 6 6 6 6 5 5 5 5 5 4 4 4 4 4
Wind_Speed
9 11 8 3 4 6 8 9 5 2 2 4 7 4 4 5 5 8 5 8 12 12 15 14 15 14 14 13 13 12 12 11 11 11 10 10 10 10 10 9 9 9 9 9 8 9 8 8 8
10 8 6 4 5 7 8 11 7 3 6 6 4 3 2 5 8 9 6 9 11 12 14 14 15 15 14 13 13 12 12 11 11 10 10 10 9 9 9 9 9 9 9 8 8 8 8 8 7
10 8 4 4 6 7 5 1 4 6 8 5 3 1 2 5 8 6 8 9 11 11 14 15 15 15 14 13 12 12 11 11 11 10 10 9 9 9 9 9 8 8 8 8 7 7 6 7 7
5 4 5 7 12 10 7 2 7 6 5 3 3 4 4 6 5 8 9 9 12 12 14 15 15 14 14 13 12 12 11 11 10 10 10 9 9 9 9 9 8 8 7 7 6 6 5 5 5
5 4 6 8 13 11 6 3 5 3 6 5 4 4 5 5 10 10 8 9 12 11 13 14 15 14 13 13 12 11 11 10 10 9 9 9 8 8 8 8 8 8 7 6 6 5 5 4 3
4 5 6 11 12 11 7 2 4 4 4 5 4 4 5 7 9 8 8 9 11 11 12 14 14 14 13 12 12 11 10 10 9 9 8 8 8 7 7 7 7 7 6 6 5 4 4 3 3
5 5 8 10 9 8 5 5 5 5 5 4 2 4 7 8 8 7 7 8 10 10 10 10 12 13 13 12 12 11 10 9 9 8 7 7 7 7 7 6 6 6 5 4 4 3 3 2 1
4 4 8 9 10 6 1 3 2 1 2 1 1 2 6 10 9 8 7 8 8 8 8 8 10 11 11 11 11 11 10 9 8 8 6 5 5 6 6 5 5 4 4 3 2 2 1 1 1
4 5 7 7 6 1 5 3 3 3 3 1 3 5 7 12 9 8 7 6 6 6 6 6 7 8 9 9 10 10 9 8 8 7 6 4 4 5 5 5 4 3 3 2 1 1 1 1 2
5 6 6 3 4 3 4 2 2 2 3 3 3 7 10 10 9 8 8 8 7 6 6 5 6 6 7 7 8 7 7 6 5 5 4 3 3 3 4 4 4 3 2 2 1 2 2 2 3
7 7 6 5 4 4 2 1 2 4 6 6 7 9 10 9 8 7 7 7 7 6 5 5 5 5 5 4 5 4 4 4 4 3 3 2 2 2 3 2 2 2 2 2 3 3 3 3 3
8 9 8 5 3 2 4 3 5 7 5 2 2 8 10 9 9 8 7 7 6 6 6 5 5 4 4 4 3 3 3 3 3 3 2 2 2 1 1 2 1 1 0 0 1 2 3 3 4
13 9 7 5 3 4 5 8 7 8 6 3 1 6 8 9 8 7 7 7 7 6 6 5 5 4 4 3 2 2 2 3 3 3 2 2 2 1 1 1 1 0 1 1 1 1 2 2 3
7 8 8 6 6 6 8 9 8 9 6 6 7 7 8 9 8 7 6 6 7 7 7 6 6 5 4 3 3 2 2 3 3 3 2 2 2 1 1 0 0 0 1 1 1 2 2 3 2
4 6 8 10 9 6 6 10 12 12 8 8 9 9 9 9 8 8 7 7 7 7 6 6 6 5 5 4 3 2 3 3 3 3 3 2 2 1 1 1 1 1 1 2 2 2 2 2 3
6 7 7 8 11 7 6 9 8 8 10 9 8 8 9 9 9 7 7 6 6 7 7 6 5 5 4 4 3 2 3 3 3 3 3 2 2 2 1 1 1 1 1 1 1 2 2 2 3
8 8 9 6 9 8 9 8 5 4 8 9 9 8 8 8 8 7 7 7 7 7 7 6 6 5 4 3 3 2 2 2 3 3 2 2 2 2 2 2 1 1 1 1 2 2 2 2 3
8 9 9 8 8 8 9 9 6 5 6 8 8 8 8 9 9 8 8 7 7 7 6 6 6 5 4 3 2 2 2 2 2 3 2 2 2 2 1 1 1 0 1 1 1 2 2 2 3
7 8 8 4 3 6 9 11 10 9 8 9 8 8 9 8 8 8 8 7 7 6 6 6 5 5 4 3 3 3 3 2 2 2 3 3 3 3 2 2 1 1 1 2 2 2 3 3 2
12 11 8 3 3 4 7 11 10 10 10 9 9 8 8 7 7 8 7 7 6 6 6 6 5 4 4 4 3 3 3 3 2 2 3 4 4 4 3 3 2 2 2 2 2 2 2 3 1
13 11 10 6 3 5 6 9 11 10 10 9 8 7 6 7 7 8 7 6 6 5 6 5 4 4 4 4 3 2 1 1 1 2 3 3 4 4 3 3 3 3 3 3 3 3 3 3 3
10 8 8 7 4 4 5 5 6 6 9 10 9 7 6 6 6 6 7 6 6 5 4 5 4 4 4 4 4 4 3 3 4 3 3 3 4 4 4 4 4 3 3 3 4 3 3 3 3
4 2 5 6 6 6 6 5 6 6 7 9 8 7 6 5 5 6 6 5 5 4 4 4 4 3 3 3 4 4 3 3 2 2 3 3 3 4 4 4 3 4 3 4 4 4 4 3 4
3 1 1 3 3 7 10 8 6 6 8 8 6 7 6 6 5 5 5 5 4 4 4 4 4 3 4 4 4 4 4 4 3 3 4 3 3 3 4 4 4 4 4 4 4 5 5 5 5
5 4 3 3 5 8 8 8 6 3 4 6 7 7 7 6 5 5 5 5 4 4 3 3 3 3 3 4 3 4 4 4 5 4 4 3 3 3 4 4 3 3 4 4 4 4 5 5 6
9 8 6 6 6 4 5 7 3 4 5 7 7 7 7 6 5 5 4 4 4 4 3 3 3 3 3 3 3 3 3 3 3 3 3 3 3 4 3 3 3 4 4 4 4 4 5 5 5
7 8 5 3 2 2 6 4 1 3 5 7 7 7 6 5 5 4 4 4 4 3 2 3 2 2 2 2 2 2 2 2 2 2 2 2 2 3 3 3 4 4 4 4 5 4 5 5 6
5 4 3 4 4 5 6 7 5 6 5 6 7 6 5 5 5 4 3 3 3 3 2 2 2 1 1 1 1 1 1 1 2 2 2 2 3 3 3 3 4 4 4 4 5 4 5 5 6
6 5 4 4 4 4 4 1 2 5 6 6 6 6 6 5 4 4 3 3 3 3 3 2 2 1 1 0 0 0 1 1 1 2 2 3 3 3 3 3 3 4 4 4 4 5 5 6 6
5 6 6 5 4 4 2 1 3 6 7 6 6 6 5 5 5 4 3 3 3 3 3 2 2 1 1 1 1 1 1 0 1 2 2 2 2 2 3 3 3 4 4 4 4 5 5 6 7
Wind_Direction
278 255 240 237 230 231 239 243 241 125 63 37 27 18 16 24 34 110 153 104 108 114 118 119 118 117 114 110 108 105 102 101 101 99 99 99 97 96 95 97 98 97 94 91 91 95 96 96 97
275 246 232 231 235 230 236 228 231 150 96 69 47 3 34 72 82 107 116 106 112 113 115 117 117 116 115 112 108 106 103 100 98 97 96 96 97 97 99 97 97 95 92 88 87 90 95 95 98
265 244 228 222 228 231 251 159 123 97 97 115 124 2 29 76 96 107 117 126 117 110 111 117 119 116 114 113 110 107 104 102 99 98 96 96 96 96 97 97 97 95 91 89 88 88 95 97 98
239 217 242 241 242 244 262 57 86 104 113 139 145 113 75 50 80 110 129 130 116 112 111 118 120 119 117 114 112 109 106 104 100 98 97 96 96 97 95 94 94 92 91 93 92 89 95 100 104
242 229 226 236 245 256 270 84 96 152 156 173 190 133 90 68 94 117 134 124 115 112 113 119 119 118 117 116 114 113 110 106 102 99 99 96 98 97 96 94 96 95 91 88 89 89 95 105 116
227 234 231 232 237 237 231 173 150 210 187 165 190 151 110 120 116 129 127 116 113 115 116 119 120 120 118 117 117 114 111 107 104 101 101 99 97 99 98 100 99 96 93 89 85 83 93 97 119
243 245 249 255 249 236 202 154 172 209 209 179 182 137 128 134 130 134 123 108 110 115 120 124 123 120 119 117 116 113 111 109 106 104 105 104 103 102 102 103 102 99 97 94 89 82 88 93 116
267 270 250 251 256 255 142 114 114 282 255 155 142 149 143 141 140 132 117 105 110 117 123 129 129 125 119 118 120 120 118 118 117 117 118 120 119 115 113 107 110 110 106 105 102 93 99 128 183
271 253 250 248 254 251 93 103 91 26 345 31 68 59 115 133 139 130 126 117 120 124 126 129 128 125 124 125 129 133 133 135 136 135 137 134 127 122 119 116 116 122 129 139 149 191 223 227 232
216 237 245 291 352 16 72 85 121 181 221 195 122 99 120 140 149 153 155 151 146 140 131 126 126 125 126 130 135 145 146 143 135 124 125 124 114 115 127 143 153 159 171 196 215 240 235 233 232
207 237 258 287 10 6 354 268 239 239 227 208 176 150 144 155 163 169 169 157 151 143 131 123 122 125 122 123 133 127 129 133 125 119 125 115 104 111 111 125 145 162 180 213 237 232 233 236 230
235 242 263 287 10 340 293 269 240 232 238 309 148 152 160 174 179 181 178 167 154 143 141 134 128 129 134 131 131 140 136 132 130 124 121 110 102 89 95 109 113 135 210 223 249 235 245 251 251
237 251 258 271 270 265 273 267 269 252 239 260 171 165 177 184 186 189 186 168 152 148 147 141 139 142 140 136 155 139 133 137 135 131 129 112 122 146 91 121 120 217 262 247 264 269 256 251 253
243 250 255 252 243 237 244 252 247 246 225 212 191 193 194 193 191 189 190 175 159 154 153 150 151 152 144 149 160 156 139 137 135 141 149 146 128 132 148 154 179 262 275 264 267 269 263 259 252
273 266 259 239 228 222 230 248 232 234 220 214 202 195 194 197 194 193 188 176 164 157 151 150 153 154 157 163 166 149 156 148 149 161 168 164 143 148 148 186 237 266 279 290 293 290 291 285 278
230 237 240 224 205 190 196 249 232 206 203 214 209 197 195 198 195 185 175 166 157 150 149 150 155 154 163 162 161 164 159 149 159 165 168 174 176 183 159 187 236 281 299 294 281 292 299 294 290
211 227 230 223 190 183 202 247 242 206 201 211 210 203 196 189 190 181 175 163 153 152 151 153 153 159 164 160 169 175 155 160 163 167 170 182 195 199 159 185 218 290 312 280 287 304 300 296 295
208 222 230 219 184 196 217 244 244 230 225 221 211 201 198 193 188 177 166 157 153 154 155 158 156 160 159 157 162 159 167 178 169 169 175 195 204 201 175 185 209 237 257 281 278 284 294 289 288
265 254 251 245 193 210 232 247 248 235 224 226 218 205 201 195 180 165 157 154 153 153 155 158 159 166 160 160 166 174 189 197 195 186 184 201 206 205 193 206 235 226 226 243 257 274 286 296 304
252 262 265 255 221 244 257 261 255 241 224 214 214 208 198 186 178 164 155 153 158 157 156 159 166 174 170 170 175 183 190 197 194 190 192 208 211 208 209 197 220 230 229 246 255 267 280 293 292
236 241 249 249 253 253 270 269 240 234 223 211 205 202 196 184 178 163 156 155 153 154 159 171 174 178 174 167 162 168 154 191 198 207 210 213 215 209 205 205 217 226 221 234 240 235 248 273 273
239 239 250 256 245 244 213 266 244 214 205 204 200 192 193 181 162 155 153 153 154 154 154 163 173 178 178 169 171 176 194 213 220 207 209 216 215 208 207 210 218 228 227 237 246 248 244 248 263
239 271 250 249 250 266 237 247 256 210 207 198 189 184 176 156 146 146 145 146 144 142 151 162 167 173 174 178 184 190 206 221 224 213 210 224 226 206 204 209 215 230 231 235 245 250 245 243 248
188 144 285 262 243 247 223 221 256 210 203 185 173 160 143 130 126 128 128 127 128 129 141 150 163 181 182 188 194 197 209 218 220 231 222 223 227 223 212 214 216 224 229 233 244 245 243 245 248
184 160 170 197 213 235 206 210 236 198 166 151 141 123 116 112 120 127 125 134 137 142 147 161 173 185 188 192 196 206 214 218 223 227 226 227 228 232 226 230 228 230 231 240 246 248 247 247 247
204 199 189 195 211 224 202 218 208 129 110 108 111 109 106 110 109 107 119 129 140 147 158 171 178 186 189 196 208 218 216 215 228 230 232 235 231 226 222 231 233 240 238 248 247 249 251 255 252
199 222 251 278 286 252 218 196 176 143 121 122 124 118 110 106 106 101 97 113 132 141 147 149 159 173 180 193 214 231 230 225 230 235 238 251 244 239 230 233 235 237 239 242 245 246 247 250 251
238 207 189 205 209 234 227 204 186 170 163 143 133 123 108 99 101 98 92 98 119 135 135 134 141 151 161 170 217 255 262 250 233 234 244 259 252 244 244 250 242 241 244 245 249 252 255 256 258
201 210 203 207 237 214 226 203 42 140 131 121 110 107 104 103 101 94 92 93 105 103 105 100 97 92 80 55 59 24 283 257 251 244 247 266 258 245 244 251 253 250 253 254 257 262 263 262 266
217 206 190 190 223 223 238 280 26 89 96 91 89 85 87 88 88 89 89 78 76 82 80 75 72 70 62 60 68 58 6 341 282 269 270 277 270 267 263 262 259 261 266 262 261 267 269 267 270
Height
1480 1483 1486 1489 1491 1491 1484 1469 1458 1459 1461 1463 1465 1466 1469 1474 1477 1490 1491 1491 1491 1492 1494 1496 1498 1500 1502 1504 1506 1508 1510 1512 1513 1514 1515 1516 1517 1519 1520 1521 1522 1523 1524 1525 1525 1526 1526 1527 1528
1480 1484 1488 1489 1489 1490 1478 1464 1460 1459 1462 1466 1468 1470 1471 1477 1480 1485 1488 1490 1491 1492 1494 1496 1498 1501 1503 1505 1507 1508 1510 1512 1513 1514 1516 1517 1518 1519 1520 1521 1522 1523 1524 1525 1525 1526 1527 1527 1528
1479 1484 1487 1484 1482 1479 1468 1456 1457 1460 1464 1468 1471 1473 1475 1479 1482 1485 1487 1490 1492 1493 1494 1496 1499 1501 1503 1505 1507 1508 1510 1512 1513 1514 1516 1517 1518 1519 1520 1521 1522 1523 1524 1524 1525 1526 1527 1527 1528
1481 1485 1484 1481 1476 1465 1459 1457 1458 1461 1466 1469 1472 1475 1478 1482 1482 1484 1487 1490 1492 1493 1495 1496 1499 1501 1503 1505 1507 1508 1510 1511 1513 1514 1515 1517 1518 1519 1520 1521 1522 1522 1523 1524 1525 1526 1526 1527 1527
1481 1482 1481 1478 1471 1462 1456 1456 1460 1463 1466 1469 1472 1475 1479 1482 1483 1485 1488 1491 1492 1492 1494 1497 1499 1501 1503 1505 1506 1508 1510 1511 1513 1514 1515 1516 1517 1518 1519 1520 1521 1522 1522 1523 1524 1525 1525 1526 1526
1481 1477 1478 1475 1466 1458 1456 1457 1460 1463 1465 1469 1471 1474 1480 1482 1483 1486 1489 1491 1492 1492 1495 1497 1499 1501 1503 1504 1506 1508 1509 1511 1512 1513 1514 1515 1517 1518 1519 1520 1520 1521 1522 1522 1523 1524 1524 1525 1525
1479 1475 1473 1466 1461 1456 1454 1456 1460 1463 1465 1468 1470 1473 1479 1482 1483 1486 1489 1491 1492 1493 1495 1496 1498 1500 1502 1504 1506 1507 1509 1510 1511 1513 1514 1515 1516 1517 1518 1519 1519 1520 1521 1521 1522 1523 1523 1524 1524
1475 1473 1468 1464 1461 1457 1454 1457 1461 1464 1466 1468 1470 1472 1476 1480 1482 1486 1488 1490 1491 1493 1495 1496 1498 1500 1501 1503 1505 1507 1508 1509 1511 1512 1513 1514 1515 1516 1516 1517 1518 1519 1519 1520 1520 1521 1522 1522 1523
1474 1475 1469 1461 1458 1456 1456 1459 1463 1465 1467 1468 1469 1471 1473 1477 1481 1484 1487 1489 1491 1493 1494 1496 1497 1499 1501 1502 1504 1505 1507 1508 1509 1511 1512 1513 1514 1514 1515 1516 1516 1517 1518 1518 1519 1519 1520 1521 1521
1472 1473 1464 1458 1456 1456 1458 1461 1464 1466 1467 1468 1470 1472 1474 1477 1480 1482 1485 1487 1489 1491 1493 1495 1496 1498 1499 1501 1503 1504 1506 1507 1508 1509 1510 1511 1512 1513 1514 1514 1515 1515 1516 1516 1517 1518 1518 1519 1519
1467 1465 1460 1458 1458 1459 1461 1463 1465 1466 1467 1467 1469 1471 1474 1476 1479 1481 1483 1486 1488 1490 1492 1493 1495 1496 1498 1500 1501 1503 1504 1506 1507 1508 1509 1510 1511 1511 1512 1512 1513 1513 1514 1514 1515 1515 1516 1516 1517
1462 1460 1460 1459 1460 1462 1463 1463 1464 1465 1465 1465 1466 1468 1471 1474 1477 1479 1481 1484 1486 1488 1489 1491 1493 1495 1496 1498 1500 1501 1503 1504 1505 1506 1507 1508 1509 1510 1510 1510 1511 1511 1512 1512 1512 1513 1513 1514 1514
1460 1459 1459 1460 1461 1462 1463 1463 1463 1462 1463 1464 1465 1467 1469 1471 1474 1477 1480 1482 1484 1485 1487 1489 1491 1493 1495 1496 1498 1500 1501 1502 1503 1505 1506 1506 1507 1508 1508 1508 1509 1509 1509 1510 1510 1510 1511 1511 1511
1457 1458 1458 1459 1460 1461 1462 1461 1462 1458 1460 1461 1463 1465 1467 1469 1472 1475 1477 1480 1481 1483 1485 1487 1489 1491 1492 1494 1496 1497 1499 1500 1501 1503 1503 1504 1505 1505 1506 1506 1507 1507 1507 1508 1508 1508 1508 1508 1508
1457 1458 1457 1455 1456 1458 1460 1460 1456 1454 1457 1458 1460 1462 1464 1467 1469 1471 1474 1476 1478 1480 1482 1484 1486 1488 1490 1492 1493 1495 1496 1498 1499 1500 1501 1502 1502 1503 1503 1503 1504 1504 1505 1505 1505 1505 1505 1505 1505
1457 1459 1458 1449 1450 1454 1461 1458 1449 1449 1452 1454 1456 1458 1461 1463 1466 1468 1471 1473 1475 1477 1479 1481 1484 1485 1487 1489 1491 1493 1494 1495 1497 1498 1498 1499 1500 1500 1500 1501 1501 1501 1502 1502 1502 1502 1502 1502 1502
1456 1457 1453 1448 1446 1449 1455 1453 1447 1446 1448 1450 1453 1455 1457 1460 1462 1465 1467 1470 1472 1474 1476 1478 1480 1483 1485 1487 1489 1490 1491 1493 1494 1495 1495 1496 1497 1497 1497 1498 1498 1499 1499 1499 1499 1499 1499 1499 1498
1451 1450 1446 1445 1443 1446 1450 1449 1446 1445 1445 1447 1449 1451 1454 1456 1458 1461 1464 1466 1469 1471 1473 1475 1477 1480 1482 1484 1485 1487 1488 1490 1491 1492 1492 1493 1494 1494 1494 1494 1495 1495 1495 1496 1496 1496 1496 1495 1495
1442 1443 1443 1441 1440 1444 1446 1445 1443 1442 1442 1443 1445 1447 1449 1452 1455 1458 1460 1463 1466 1468 1470 1471 1474 1476 1478 1479 1481 1483 1485 1486 1487 1488 1489 1490 1490 1491 1491 1491 1492 1492 1492 1492 1492 1492 1492 1492 1491
1444 1445 1444 1442 1441 1443 1444 1442 1438 1437 1437 1438 1440 1442 1445 1448 1451 1454 1457 1459 1461 1464 1466 1468 1470 1472 1474 1476 1478 1480 1481 1483 1484 1485 1486 1486 1487 1487 1487 1488 1488 1488 1488 1488 1489 1489 1488 1488 1488
1442 1444 1444 1444 1444 1443 1446 1442 1435 1430 1431 1433 1436 1438 1441 1444 1447 1450 1453 1455 1458 1460 1462 1463 1466 1468 1470 1472 1474 1476 1478 1479 1480 1480 1481 1482 1483 1483 1484 1484 1484 1484 1484 1484 1485 1485 1484 1484 1484
1442 1439 1440 1442 1448 1450 1447 1452 1432 1427 1427 1429 1431 1434 1437 1441 1444 1446 1449 1452 1454 1456 1458 1460 1462 1464 1466 1468 1470 1471 1472 1474 1475 1476 1477 1478 1479 1479 1480 1480 1480 1480 1480 1481 1481 1481 1481 1480 1479
1439 1438 1440 1443 1447 1450 1445 1450 1436 1425 1426 1426 1428 1431 1434 1437 1440 1443 1446 1448 1451 1453 1455 1457 1458 1460 1462 1464 1466 1467 1469 1470 1471 1472 1473 1474 1474 1475 1475 1475 1476 1476 1476 1476 1476 1477 1476 1476 1476
1438 1441 1443 1445 1449 1456 1443 1446 1435 1424 1421 1422 1424 1427 1431 1435 1438 1441 1443 1446 1448 1450 1452 1453 1455 1457 1458 1460 1462 1463 1464 1466 1467 1468 1468 1469 1470 1470 1471 1471 1471 1472 1472 1471 1471 1472 1472 1471 1471
1439 1447 1454 1456 1457 1450 1430 1434 1428 1418 1416 1418 1422 1426 1430 1433 1436 1439 1441 1443 1445 1447 1448 1450 1452 1453 1455 1456 1458 1459 1460 1462 1462 1463 1464 1465 1465 1466 1466 1467 1467 1467 1467 1467 1467 1467 1467 1466 1466
1438 1440 1446 1451 1447 1437 1427 1429 1422 1415 1416 1418 1423 1426 1430 1433 1436 1438 1439 1441 1443 1444 1446 1448 1449 1450 1452 1453 1454 1455 1456 1457 1458 1459 1460 1461 1461 1461 1462 1463 1463 1463 1463 1463 1462 1462 1461 1461 1461
1436 1437 1433 1437 1436 1439 1429 1420 1421 1416 1418 1420 1424 1427 1430 1433 1435 1437 1439 1440 1442 1443 1444 1446 1447 1448 1449 1450 1451 1452 1453 1453 1454 1455 1456 1456 1457 1457 1457 1458 1458 1458 1458 1457 1457 1456 1456 1456 1455
1432 1432 1437 1441 1441 1436 1423 1419 1423 1422 1421 1421 1424 1427 1431 1433 1436 1437 1438 1440 1441 1442 1443 1444 1445 1446 1447 1448 1449 1449 1450 1450 1450 1451 1451 1452 1452 1452 1453 1453 1453 1453 1453 1452 1452 1451 1451 1451 1450
1433 1434 1434 1437 1434 1434 1429 1427 1418 1419 1419 1422 1425 1428 1431 1433 1435 1437 1438 1439 1440 1441 1442 1443 1444 1445 1445 1446 1446 1446 1447 1447 1447 1447 1448 1448 1448 1448 1448 1448 1448 1448 1448 1447 1447 1446 1446 1445 1444
1429 1429 1433 1439 1437 1432 1431 1435 1420 1420 1422 1424 1427 1430 1432 1434 1436 1437 1438 1439 1439 1440 1441 1441 1442 1443 1443 1444 1444 1444 1444 1444 1444 1444 1444 1445 1444 1444 1444 1444 1444 1443 1443 1442 1442 1441 1441 1440 1439